Location: George Washington National Forest Helicopter Landing Site
(38.6463°N, 79.0851°W)
Time: 15:47:33
(UTC-04:00)

Vanguard 1 Rocket - All Passes

Search period start: 18 August 2019 00:00
Search period end: 28 August 2019 00:00
Orbit: 652 x 4224 km, 34.3° (Epoch: 16 August)

Date Brightness Start Highest point End Pass type
(mag) Time Alt. Az. Time Alt. Az. Time Alt. Az.
18 Aug - 03:18:26 10° SSW 03:21:55 22° SSE 03:26:13 10° E visible
18 Aug - 05:40:54 10° WSW 05:46:08 60° S 05:55:19 10° E visible
18 Aug - 08:04:36 10° W 08:11:57 58° SSW 08:26:21 10° ESE daylight
18 Aug - 10:29:41 10° W 10:39:31 34° SSW 10:56:08 10° SSE daylight
18 Aug - 13:02:46 10° WSW 13:08:42 12° SW 13:15:35 10° SSW daylight
19 Aug - 02:11:06 10° SSE 02:11:26 10° SE 02:11:47 10° SE visible
19 Aug - 04:30:46 10° SW 04:35:15 46° SSE 04:42:02 10° E visible
19 Aug - 06:54:13 10° W 07:00:18 63° S 07:11:52 10° ESE daylight
19 Aug - 09:18:28 10° W 09:26:55 42° SSW 09:42:29 10° SE daylight
19 Aug - 11:46:18 10° WSW 11:55:20 19° SSW 12:07:53 10° S daylight
20 Aug - 03:20:50 10° SW 03:24:39 28° SSE 03:29:24 10° E visible
20 Aug - 05:43:55 10° WSW 05:49:03 62° S 05:57:58 10° E visible
20 Aug - 08:07:45 10° W 08:14:50 50° SSW 08:28:20 10° SE daylight
20 Aug - 10:33:25 10° W 10:42:20 27° SSW 10:56:28 10° SSE daylight
21 Aug - 02:11:29 10° S 02:14:08 15° SSE 02:16:53 10° ESE visible
21 Aug - 04:33:40 10° WSW 04:38:09 52° SSE 04:44:51 10° E visible
21 Aug - 06:57:18 10° W 07:03:14 56° S 07:14:14 10° ESE daylight
21 Aug - 09:21:51 10° W 09:29:48 34° SSW 09:43:36 10° SSE daylight
21 Aug - 11:52:22 10° WSW 11:58:11 13° SSW 12:05:17 10° SSW daylight
22 Aug - 03:23:28 10° SW 03:27:30 36° SSE 03:32:27 10° E visible
22 Aug - 05:46:58 10° W 05:52:00 59° S 06:00:36 10° ESE visible
22 Aug - 08:10:58 10° W 08:17:45 41° SSW 08:30:06 10° SE daylight
22 Aug - 10:37:42 10° WSW 10:45:13 19° SSW 10:56:05 10° S daylight
23 Aug - 02:13:27 10° SSW 02:16:55 22° SSE 02:20:28 10° ESE visible
23 Aug - 04:36:38 10° WSW 04:41:05 55° S 04:47:39 10° E visible
23 Aug - 07:00:26 10° W 07:06:10 48° SSW 07:16:29 10° ESE daylight
23 Aug - 09:25:31 10° WSW 09:32:44 26° SSW 09:44:19 10° SSE daylight
24 Aug - 01:04:08 10° S 01:06:12 12° SSE 01:08:08 10° SE night (unlit)
24 Aug - 03:26:15 10° WSW 03:30:23 43° SSE 03:35:26 10° E visible
24 Aug - 05:50:03 10° W 05:54:59 54° S 06:03:11 10° ESE visible
24 Aug - 08:14:20 10° W 08:20:42 32° SSW 08:31:36 10° SE daylight
24 Aug - 10:43:22 10° SW 10:48:12 13° SSW 10:54:10 10° S daylight
25 Aug - 02:15:48 10° SW 02:19:47 29° SSE 02:23:44 10° E visible
25 Aug - 04:39:39 10° WSW 04:44:04 55° S 04:50:26 10° ESE visible
25 Aug - 07:03:39 10° W 07:09:08 39° SSW 07:18:33 10° SE daylight
25 Aug - 09:29:41 10° WSW 09:35:43 19° SSW 09:44:23 10° SSE daylight
26 Aug - 01:05:29 10° SSW 01:09:05 19° SSE 01:12:14 10° ESE night (unlit)
26 Aug - 03:29:07 10° WSW 03:33:20 48° S 03:38:22 10° E visible
26 Aug - 05:53:10 10° W 05:57:58 46° S 06:05:39 10° ESE visible
26 Aug - 08:17:57 10° WSW 08:23:42 24° SSW 08:32:42 10° SSE daylight
26 Aug - 23:55:53 10° S 23:58:07 12° SSE 00:00:06 10° SE night (unlit)
27 Aug - 02:18:23 10° SW 02:22:42 37° SSE 02:26:53 10° E visible
27 Aug - 04:42:42 10° W 04:47:04 52° S 04:53:10 10° ESE visible
27 Aug - 07:06:59 10° WSW 07:12:08 31° SSW 07:20:23 10° SE daylight
27 Aug - 09:35:17 10° SW 09:38:45 12° SSW 09:42:54 10° S daylight
